BAW1495 EGKK-KJFK

Flight info

Callsign BAW1495
Flight time N/A
Altitude 36000
Route NOVMA L620 SAM N19 ADKIK DCT MOPAT DCT DOGAL/M085F360 DCT 54N020W 52N030W 4730N04000W 44N050W/M085F380 42N060W/M085F400 DCT DOVEY/N0494F400 N20B SAILE DCT PLYMM PARCH4
Aircraft A35K/H-SDE2E3GHIJ3J4J5LM1ORWXY/LB1D1

Departure

Time 2026-05-08 03:59
Airport London Gatwick Airport (EGKK)

Arrival

Time N/A
Airport John F. Kennedy International Airport (KJFK)
Time Latitude Longitude Altitude Speed Heading
2026-05-08 03:43 51.15883 -0.17222 209 ft 0 kts 347°
2026-05-08 03:49 51.15871 -0.17218 219 ft 4 kts 347°
2026-05-08 03:50 51.15845 -0.17208 216 ft 4 kts 346°
2026-05-08 03:50 51.15820 -0.17194 218 ft 4 kts 321°
2026-05-08 03:50 51.15809 -0.17165 222 ft 3 kts 259°
2026-05-08 03:50 51.15813 -0.17132 214 ft 4 kts 257°
2026-05-08 03:51 51.15817 -0.17101 216 ft 0 kts 257°
2026-05-08 03:54 51.15817 -0.17102 209 ft 1 kts 257°
2026-05-08 03:54 51.15813 -0.17134 213 ft 7 kts 259°
2026-05-08 03:55 51.15795 -0.17263 218 ft 17 kts 257°
2026-05-08 03:55 51.15751 -0.17466 221 ft 14 kts 223°
2026-05-08 03:55 51.15700 -0.17485 215 ft 18 kts 182°
2026-05-08 03:55 51.15557 -0.17440 218 ft 24 kts 167°
2026-05-08 03:56 51.15415 -0.17391 215 ft 0 kts 169°
2026-05-08 03:56 51.15360 -0.17374 216 ft 20 kts 169°
2026-05-08 03:56 51.15315 -0.17293 216 ft 16 kts 92°
2026-05-08 03:56 51.15347 -0.17026 214 ft 28 kts 77°
2026-05-08 03:57 51.15366 -0.16889 216 ft 4 kts 78°
2026-05-08 03:57 51.15370 -0.16740 218 ft 19 kts 105°
2026-05-08 03:57 51.15246 -0.16651 217 ft 24 kts 167°
2026-05-08 03:57 51.15200 -0.16636 217 ft 7 kts 168°
2026-05-08 03:58 51.15144 -0.16684 219 ft 14 kts 235°
2026-05-08 03:58 51.15110 -0.16882 215 ft 26 kts 257°
2026-05-08 03:58 51.15023 -0.17508 223 ft 90 kts 258°
2026-05-08 03:58 51.14847 -0.18780 212 ft 143 kts 257°
2026-05-08 03:59 51.14601 -0.20568 305 ft 180 kts 257°
2026-05-08 03:59 51.14322 -0.22505 984 ft 181 kts 256°
2026-05-08 03:59 51.14007 -0.24555 1499 ft 199 kts 253°
2026-05-08 03:59 51.13659 -0.26717 2018 ft 213 kts 253°
2026-05-08 04:00 51.13326 -0.29174 2309 ft 239 kts 256°
2026-05-08 04:00 51.12988 -0.31851 2861 ft 251 kts 256°
2026-05-08 04:00 51.12630 -0.34605 3542 ft 257 kts 256°
2026-05-08 04:00 51.12257 -0.37395 3910 ft 259 kts 256°
2026-05-08 04:01 51.11877 -0.40201 3993 ft 260 kts 256°
2026-05-08 04:01 51.11418 -0.42984 3989 ft 260 kts 248°
2026-05-08 04:01 51.10689 -0.45614 3987 ft 260 kts 243°
2026-05-08 04:01 51.09885 -0.48188 3983 ft 260 kts 242°
2026-05-08 04:02 51.09075 -0.50759 3983 ft 260 kts 242°
2026-05-08 04:02 51.08266 -0.53331 3981 ft 260 kts 242°
2026-05-08 04:02 51.07460 -0.55903 3978 ft 260 kts 242°
2026-05-08 04:02 51.06655 -0.58472 3965 ft 260 kts 242°
2026-05-08 04:03 51.05851 -0.61047 3963 ft 260 kts 242°
2026-05-08 04:03 51.04820 -0.66557 3965 ft 261 kts 257°
2026-05-08 04:03 51.04455 -0.69347 3964 ft 262 kts 257°
2026-05-08 04:04 51.04084 -0.72178 3964 ft 261 kts 257°
2026-05-08 04:04 51.03708 -0.75006 3964 ft 261 kts 256°
2026-05-08 04:04 51.03333 -0.77831 4061 ft 262 kts 256°
2026-05-08 04:04 51.02952 -0.80675 4619 ft 265 kts 256°
2026-05-08 04:05 51.02566 -0.83537 5451 ft 265 kts 256°
2026-05-08 04:05 51.02175 -0.86410 6254 ft 267 kts 256°
2026-05-08 04:05 51.01779 -0.89314 7041 ft 270 kts 256°
2026-05-08 04:05 51.01382 -0.92226 7910 ft 270 kts 256°
2026-05-08 04:06 51.00992 -0.95130 8832 ft 269 kts 256°
2026-05-08 04:06 51.00594 -0.98052 9694 ft 272 kts 256°
2026-05-08 04:06 51.00190 -1.01003 10488 ft 274 kts 256°
2026-05-08 04:06 50.99784 -1.03937 11236 ft 277 kts 256°
2026-05-08 04:07 50.99366 -1.06948 11985 ft 281 kts 256°
2026-05-08 04:07 50.98942 -1.10004 12763 ft 284 kts 256°
2026-05-08 04:07 50.98513 -1.13083 13511 ft 288 kts 257°
2026-05-08 04:07 50.98079 -1.16208 14201 ft 291 kts 257°
2026-05-08 04:08 50.97640 -1.19370 14829 ft 295 kts 256°
2026-05-08 04:08 50.97194 -1.22576 15457 ft 299 kts 256°
2026-05-08 04:08 50.96742 -1.25823 16102 ft 303 kts 256°
2026-05-08 04:08 50.96282 -1.29114 16758 ft 307 kts 256°
2026-05-08 04:09 50.95816 -1.32442 17358 ft 310 kts 256°
2026-05-08 04:09 50.95345 -1.35802 17979 ft 314 kts 256°
2026-05-08 04:09 50.94891 -1.39214 18552 ft 318 kts 256°
2026-05-08 04:09 50.94454 -1.42668 19120 ft 320 kts 257°
2026-05-08 04:10 50.94029 -1.46089 19714 ft 321 kts 257°
2026-05-08 04:10 50.93595 -1.49582 20278 ft 323 kts 257°
2026-05-08 04:10 50.93154 -1.53091 20833 ft 326 kts 257°
2026-05-08 04:10 50.92707 -1.56622 21415 ft 328 kts 257°
2026-05-08 04:11 50.92252 -1.60178 21940 ft 330 kts 257°
2026-05-08 04:11 50.91790 -1.63766 22496 ft 333 kts 257°
2026-05-08 04:11 50.91323 -1.67373 23030 ft 335 kts 257°
2026-05-08 04:11 50.90852 -1.71009 23568 ft 338 kts 257°
2026-05-08 04:12 50.90376 -1.74667 24022 ft 340 kts 257°
2026-05-08 04:12 50.89897 -1.78347 24455 ft 342 kts 256°
2026-05-08 04:12 50.89413 -1.82052 24894 ft 344 kts 256°
2026-05-08 04:12 50.88926 -1.85777 25364 ft 346 kts 256°
2026-05-08 04:13 50.88434 -1.89517 25803 ft 348 kts 257°
2026-05-08 04:13 50.87945 -1.93232 26224 ft 350 kts 257°
2026-05-08 04:13 50.87446 -1.97011 26651 ft 352 kts 256°
2026-05-08 04:13 50.86944 -2.00819 27087 ft 354 kts 257°
2026-05-08 04:14 50.86440 -2.04647 27519 ft 356 kts 256°
2026-05-08 04:14 50.85928 -2.08497 27929 ft 358 kts 256°
2026-05-08 04:14 50.85411 -2.12365 28307 ft 361 kts 256°
2026-05-08 04:14 50.84887 -2.16267 28689 ft 363 kts 256°
2026-05-08 04:15 50.84359 -2.20191 29087 ft 365 kts 256°
2026-05-08 04:15 50.83829 -2.24124 29524 ft 365 kts 256°
2026-05-08 04:15 50.83302 -2.28040 30016 ft 364 kts 256°
2026-05-08 04:15 50.82774 -2.31949 30420 ft 363 kts 256°
2026-05-08 04:16 50.82244 -2.35850 30780 ft 362 kts 257°
2026-05-08 04:16 50.81714 -2.39736 31121 ft 362 kts 258°
2026-05-08 04:16 50.81184 -2.43625 31439 ft 361 kts 258°
2026-05-08 04:16 50.80690 -2.47517 31757 ft 361 kts 261°
2026-05-08 04:17 50.80403 -2.51454 32057 ft 361 kts 266°
2026-05-08 04:17 50.80380 -2.55411 32344 ft 360 kts 273°
2026-05-08 04:17 50.80639 -2.59293 32622 ft 360 kts 279°
2026-05-08 04:17 50.81169 -2.63166 32898 ft 359 kts 283°
2026-05-08 04:18 50.81800 -2.66987 33178 ft 359 kts 284°
2026-05-08 04:18 50.82465 -2.70784 33445 ft 358 kts 285°
2026-05-08 04:18 50.83144 -2.74570 33705 ft 357 kts 285°
2026-05-08 04:18 50.83821 -2.78347 33941 ft 357 kts 285°
2026-05-08 04:19 50.84491 -2.82123 34141 ft 356 kts 286°
2026-05-08 04:19 50.85152 -2.85885 34425 ft 352 kts 285°
2026-05-08 04:19 50.85802 -2.89615 34644 ft 350 kts 285°
2026-05-08 04:19 50.86446 -2.93340 34765 ft 351 kts 285°
2026-05-08 04:20 50.87091 -2.97082 34880 ft 352 kts 285°
2026-05-08 04:20 50.87726 -3.00781 35003 ft 352 kts 285°
2026-05-08 04:20 50.88368 -3.04523 35130 ft 352 kts 285°
2026-05-08 04:20 50.89009 -3.08274 35248 ft 353 kts 285°
2026-05-08 04:21 50.90294 -3.15804 35408 ft 356 kts 285°
2026-05-08 04:21 50.91369 -3.22132 35496 ft 359 kts 284°
2026-05-08 04:22 50.92673 -3.29832 35613 ft 364 kts 284°
2026-05-08 04:22 50.93984 -3.37620 35782 ft 367 kts 285°
2026-05-08 04:23 50.95308 -3.45510 35903 ft 372 kts 285°
2026-05-08 04:23 50.96637 -3.53463 35964 ft 379 kts 285°
2026-05-08 04:24 50.97997 -3.61641 36011 ft 387 kts 284°
2026-05-08 04:24 50.99383 -3.70025 36015 ft 397 kts 284°
2026-05-08 04:25 51.00798 -3.78623 36015 ft 407 kts 285°
2026-05-08 04:25 51.02244 -3.87453 36014 ft 418 kts 284°
2026-05-08 04:26 51.03714 -3.96478 36015 ft 430 kts 284°
2026-05-08 04:26 51.05226 -4.05808 36016 ft 441 kts 284°
2026-05-08 04:27 51.06766 -4.15364 36017 ft 452 kts 284°
2026-05-08 04:27 51.08334 -4.25154 36004 ft 461 kts 284°
2026-05-08 04:28 51.09918 -4.35100 36010 ft 464 kts 284°
2026-05-08 04:28 51.11491 -4.45047 36009 ft 463 kts 284°
2026-05-08 04:29 51.13056 -4.54994 36001 ft 463 kts 284°
2026-05-08 04:29 51.14602 -4.64886 36011 ft 463 kts 283°
2026-05-08 04:30 51.16149 -4.74846 36005 ft 463 kts 283°
2026-05-08 04:30 51.17685 -4.84782 36003 ft 461 kts 283°
2026-05-08 04:31 51.19193 -4.94602 36004 ft 450 kts 283°
2026-05-08 04:31 51.20663 -5.04243 36006 ft 445 kts 283°
2026-05-08 04:32 51.22117 -5.13838 36012 ft 445 kts 283°
2026-05-08 04:32 51.23555 -5.23381 36006 ft 445 kts 283°
2026-05-08 04:33 51.24996 -5.33002 36005 ft 445 kts 282°
2026-05-08 04:33 51.26427 -5.42611 35997 ft 445 kts 282°
2026-05-08 04:34 51.27849 -5.52218 36005 ft 445 kts 282°
2026-05-08 04:34 51.29263 -5.61834 36000 ft 445 kts 282°
2026-05-08 04:35 51.30671 -5.71465 36004 ft 445 kts 282°
2026-05-08 04:35 51.32068 -5.81088 36000 ft 445 kts 282°
2026-05-08 04:36 51.33460 -5.90727 36011 ft 445 kts 282°
2026-05-08 04:36 51.34835 -6.00311 36006 ft 445 kts 282°
2026-05-08 04:37 51.36211 -6.09960 36009 ft 445 kts 282°
2026-05-08 04:37 51.37578 -6.19614 36008 ft 445 kts 282°
2026-05-08 04:38 51.38939 -6.29275 36005 ft 445 kts 281°
2026-05-08 04:38 51.40291 -6.38949 36023 ft 445 kts 281°
2026-05-08 04:39 51.41626 -6.48558 36006 ft 444 kts 281°
2026-05-08 04:39 51.42962 -6.58238 36006 ft 444 kts 281°
2026-05-08 04:40 51.44289 -6.67916 36009 ft 444 kts 281°
2026-05-08 04:40 51.45609 -6.77609 36009 ft 445 kts 280°
2026-05-08 04:41 51.46922 -6.87313 36009 ft 445 kts 280°
2026-05-08 04:41 51.48220 -6.96964 36009 ft 445 kts 280°
2026-05-08 04:42 51.49641 -7.06645 36009 ft 447 kts 285°
2026-05-08 04:42 51.52232 -7.15747 36003 ft 451 kts 296°
2026-05-08 04:43 51.55375 -7.24484 36012 ft 452 kts 297°
2026-05-08 04:43 51.58612 -7.33196 36022 ft 454 kts 297°
2026-05-08 04:44 51.61839 -7.41940 36011 ft 454 kts 297°
2026-05-08 04:44 51.65019 -7.50642 36006 ft 454 kts 296°
2026-05-08 04:45 51.68203 -7.59415 36002 ft 454 kts 296°
2026-05-08 04:45 51.71383 -7.68207 36001 ft 454 kts 296°
2026-05-08 04:46 51.74559 -7.77015 36002 ft 454 kts 296°
2026-05-08 04:46 51.77710 -7.85784 35998 ft 455 kts 296°
2026-05-08 04:47 51.80877 -7.94625 35998 ft 454 kts 296°
2026-05-08 04:47 51.84036 -8.03478 35990 ft 454 kts 296°
2026-05-08 04:48 51.87189 -8.12345 35991 ft 454 kts 295°
2026-05-08 04:48 51.90336 -8.21225 35994 ft 454 kts 295°
2026-05-08 04:49 51.93473 -8.30108 35990 ft 454 kts 295°
2026-05-08 04:49 51.96587 -8.38960 35991 ft 455 kts 295°
2026-05-08 04:50 51.99720 -8.47894 35994 ft 455 kts 295°
2026-05-08 04:50 52.02840 -8.56823 35991 ft 455 kts 295°
2026-05-08 04:51 52.05951 -8.65759 35994 ft 455 kts 295°
2026-05-08 04:51 52.09062 -8.74729 35996 ft 455 kts 295°
2026-05-08 04:52 52.12167 -8.83710 35995 ft 455 kts 294°
2026-05-08 04:52 52.15244 -8.92644 35997 ft 456 kts 294°
2026-05-08 04:53 52.18342 -9.01672 36022 ft 456 kts 294°
2026-05-08 04:53 52.21427 -9.10692 35992 ft 455 kts 294°
2026-05-08 04:54 52.24502 -9.19716 35994 ft 455 kts 294°
2026-05-08 04:54 52.27568 -9.28751 35995 ft 455 kts 294°
2026-05-08 04:55 52.30615 -9.37760 35998 ft 455 kts 294°
2026-05-08 04:55 52.33667 -9.46815 36003 ft 455 kts 294°
2026-05-08 04:56 52.36722 -9.55918 36000 ft 457 kts 293°
2026-05-08 04:56 52.39772 -9.65028 35998 ft 455 kts 293°
2026-05-08 04:57 52.42812 -9.74144 35998 ft 455 kts 293°
2026-05-08 04:57 52.45816 -9.83191 36004 ft 455 kts 293°
2026-05-08 04:58 52.48833 -9.92312 36004 ft 455 kts 293°